Theta_e
314 312 316 316 318 324 323 322 319 316 317 315 316 320 320 318 317 317 316 318 318 314 314 315 318 319 320 328 334 336 341 344 343 341 341 339 339 338 337 337 335 335 334 331 330 331 331 331 331 332 332 331 332 331 331 331 333 335 335 337 338 338 336 335 334 332 331 332 332 331 331 330 330 329 329 329 329 327 326 326 326 326 325 325 326 326
313 313 317 320 321 323 323 323 321 318 319 318 319 320 317 318 318 318 320 320 322 322 317 318 322 319 318 324 332 336 340 344 344 341 339 338 338 337 336 336 335 334 333 330 330 330 330 331 331 331 331 331 331 330 330 331 333 334 335 336 336 335 332 331 332 331 330 331 331 330 330 330 329 328 327 326 326 325 324 324 325 325 325 325 324 323
313 316 319 319 318 316 317 323 324 322 323 320 320 319 316 318 318 320 329 329 328 327 320 320 321 321 326 325 327 335 337 339 341 340 339 337 337 336 336 336 335 334 333 332 331 330 330 330 331 331 331 331 331 330 331 331 332 333 334 334 333 331 330 331 331 330 329 329 328 328 329 330 329 328 326 324 324 323 322 321 321 322 324 324 323 323
314 321 321 319 319 316 316 322 322 320 323 322 318 315 316 319 316 317 329 332 330 327 322 327 327 328 334 328 324 330 334 337 337 337 338 336 336 336 335 335 334 334 333 332 332 331 329 329 330 331 330 331 331 330 331 331 332 332 332 331 331 330 330 330 330 328 327 327 326 326 327 328 328 326 324 323 323 321 319 320 321 321 322 323 322 323
314 319 319 319 323 321 318 320 321 318 321 328 325 319 320 322 318 317 324 331 334 329 326 333 331 326 329 328 328 330 334 339 336 335 336 334 334 334 334 334 333 334 333 332 333 332 330 329 329 331 330 331 332 332 332 332 331 331 331 330 330 330 330 329 328 327 325 325 325 325 325 324 323 323 321 321 322 320 319 321 322 321 321 321 321 322
315 315 314 314 319 321 318 320 325 322 320 327 332 330 326 324 323 324 331 336 333 326 321 323 322 323 328 327 325 325 331 337 334 335 336 333 334 334 334 335 333 332 332 332 332 331 330 329 330 331 331 332 333 333 332 332 331 331 331 330 330 329 328 328 327 326 324 324 324 324 323 322 320 321 320 320 321 321 321 321 322 321 321 320 320 320
317 318 317 316 320 323 319 318 322 324 321 319 325 333 332 330 326 326 333 331 325 322 321 325 325 327 329 324 320 323 331 335 333 334 335 333 334 335 333 333 332 332 332 332 332 332 331 329 330 332 331 333 334 333 332 332 331 330 330 329 328 328 327 325 324 323 323 323 324 323 323 322 321 320 319 320 321 321 321 321 321 320 319 319 319 319
319 321 321 320 323 324 321 319 321 324 323 318 323 331 331 330 327 327 331 325 323 323 324 333 331 323 326 325 321 322 327 334 335 334 334 334 335 335 333 331 331 331 331 332 333 333 332 330 330 332 332 334 334 333 333 332 332 331 330 328 328 327 326 324 323 321 322 322 323 323 323 322 321 318 318 321 322 321 321 320 320 320 319 319 319 318
322 319 322 321 320 319 321 326 326 322 319 323 329 328 325 328 330 334 333 327 328 323 321 333 329 317 329 336 325 322 324 329 334 334 333 334 333 333 334 332 331 332 331 331 333 333 332 330 331 333 333 334 334 334 333 332 332 331 330 329 328 328 326 325 324 322 322 323 323 323 322 322 320 317 317 321 322 321 321 320 320 319 319 318 318 318
320 317 322 320 317 321 327 331 327 321 319 325 327 322 323 329 332 336 333 330 334 326 322 333 326 316 332 342 329 322 323 321 326 331 328 329 330 331 333 332 331 333 332 331 332 332 330 330 332 334 333 334 334 334 333 333 332 331 331 330 329 328 327 325 325 324 323 323 323 322 322 321 319 317 319 322 322 321 321 320 319 318 318 317 317 316
320 320 321 319 317 324 330 326 321 321 319 320 322 320 321 328 334 339 337 333 332 326 327 334 330 321 327 337 332 324 320 318 321 328 327 325 328 331 332 332 332 333 332 331 333 331 329 331 332 333 333 334 333 334 333 332 331 330 330 330 329 329 327 326 326 326 323 323 322 322 322 320 318 318 320 321 321 321 320 319 318 319 317 316 316 316
323 319 318 320 318 318 319 316 315 317 318 319 323 321 317 324 329 334 335 331 328 328 331 335 330 322 324 330 329 324 320 318 319 324 327 326 328 333 333 331 331 333 331 331 333 333 330 330 331 331 332 332 333 333 331 329 327 327 329 330 329 328 328 328 328 326 323 322 322 322 322 320 317 318 320 320 321 320 318 317 318 319 317 315 314 314
323 320 319 318 317 315 314 316 313 315 321 319 323 326 321 323 324 327 331 327 328 329 328 331 326 320 327 329 323 322 321 320 320 321 325 327 329 333 333 330 331 332 331 331 332 332 333 332 329 328 331 331 331 328 325 325 326 327 329 330 329 329 329 328 326 324 322 322 322 322 322 319 317 318 319 320 320 318 316 317 319 319 317 314 313 313
322 324 324 317 317 317 314 318 315 315 319 315 319 324 322 324 324 326 328 322 324 327 322 325 323 320 329 327 320 322 322 323 324 324 328 330 330 332 330 330 331 331 331 330 330 331 332 330 326 327 330 330 326 323 324 325 326 328 330 330 329 329 330 327 324 323 323 322 322 322 321 318 317 319 319 319 318 316 315 317 318 317 316 313 313 312
322 323 325 319 318 317 314 318 320 322 320 315 317 318 319 328 328 324 327 325 325 326 322 321 319 324 328 323 323 324 323 327 328 326 329 331 330 330 329 330 331 331 331 331 331 332 330 326 324 326 328 327 324 324 326 327 327 328 329 327 328 329 329 327 323 322 323 322 322 321 319 317 317 319 319 319 316 315 316 317 318 316 314 312 312 312
317 320 327 322 315 314 313 314 318 320 318 314 315 314 315 324 329 322 321 328 331 326 322 320 319 327 327 320 323 325 324 328 329 329 330 329 329 330 329 329 329 327 328 328 329 330 327 323 323 325 325 326 326 326 328 329 328 328 327 327 328 328 327 327 324 322 322 322 321 320 317 317 318 319 319 319 316 316 317 317 317 315 312 311 312 312
315 321 326 320 313 313 313 312 313 313 315 316 312 314 316 316 325 326 317 322 329 324 323 321 318 324 325 320 323 325 327 329 329 330 330 329 329 329 327 328 326 325 324 325 327 327 323 320 323 325 325 325 326 326 328 329 329 329 326 325 326 327 326 326 325 323 322 322 321 319 318 318 319 319 320 319 317 317 318 318 317 314 312 312 312 311
323 325 324 317 311 313 311 312 314 311 313 317 312 314 316 312 322 331 324 323 322 320 325 322 317 322 327 326 325 325 330 332 331 331 330 329 329 327 326 327 328 327 325 325 329 329 323 319 321 324 324 325 326 326 328 329 328 328 326 324 325 327 326 324 323 323 323 323 321 319 319 320 321 320 320 319 316 316 318 318 318 316 315 313 312 312
322 323 323 317 312 314 314 316 320 317 312 312 313 315 315 317 323 323 321 324 320 320 322 319 318 322 325 326 325 325 331 333 332 333 331 330 329 327 326 327 327 327 328 328 329 330 326 319 319 322 323 325 325 325 327 328 327 326 325 325 326 326 326 324 322 324 324 323 321 319 319 321 322 321 320 319 317 316 317 317 318 318 317 316 314 314
324 320 320 319 313 313 318 320 321 320 316 312 316 317 317 326 328 319 318 323 323 321 319 318 321 326 328 327 326 325 329 332 332 332 332 330 328 327 326 326 325 325 327 326 326 327 324 318 319 321 322 323 324 325 326 328 326 324 323 325 325 325 325 324 323 323 324 324 322 320 321 321 321 321 320 320 317 317 317 316 317 317 318 317 317 316
323 315 319 326 319 314 317 317 314 316 316 314 317 318 317 320 318 316 317 318 321 327 326 323 322 327 334 332 327 325 326 330 332 331 331 329 328 328 326 326 326 325 326 325 325 326 322 317 319 322 322 323 324 325 325 326 325 323 322 324 325 325 325 324 323 323 324 324 322 321 321 322 321 321 321 320 318 318 318 317 317 317 318 318 318 318
319 317 327 331 322 316 316 313 311 311 312 314 316 315 318 321 317 317 318 316 322 329 327 325 323 327 335 332 328 326 325 328 329 329 331 330 329 329 326 326 326 325 326 325 325 325 320 317 319 321 323 324 324 324 325 325 325 323 323 323 324 324 325 324 323 323 323 323 323 322 322 322 322 321 321 320 319 318 319 319 319 318 318 318 319 318
324 328 329 323 315 312 312 310 310 308 310 316 315 313 320 325 322 327 328 322 321 319 320 325 325 328 334 330 327 326 323 324 326 327 330 328 327 327 326 325 324 324 323 323 324 323 317 316 318 320 321 323 323 324 324 324 324 323 323 323 323 323 324 324 322 322 323 323 324 323 322 322 322 321 321 320 320 320 320 320 320 319 319 319 319 319
326 323 319 320 322 318 314 313 314 312 312 316 314 314 318 316 318 328 331 329 325 319 321 322 319 326 331 325 324 326 324 324 324 324 326 326 325 325 325 324 324 323 321 321 321 319 315 315 317 318 319 321 322 322 322 323 323 323 322 322 323 323 323 323 322 322 323 323 323 323 323 322 321 320 320 320 320 320 320 321 321 320 319 319 319 319
318 315 317 323 326 324 319 320 325 322 315 313 313 315 315 313 320 323 322 327 327 319 323 326 322 327 327 319 321 325 324 324 322 321 323 325 326 325 324 323 323 323 321 320 320 319 317 317 315 315 317 319 321 322 322 322 322 322 322 321 322 322 322 323 322 322 322 322 323 323 323 322 321 321 321 320 320 320 320 321 320 320 320 320 320 319
319 322 328 329 325 323 323 324 329 325 316 313 314 316 316 317 320 317 317 328 325 313 319 330 328 325 322 318 320 322 322 323 322 320 320 322 324 323 322 322 321 321 321 320 321 320 319 316 313 313 314 316 319 322 322 323 322 322 321 321 321 322 322 322 322 322 322 322 322 323 323 323 322 321 321 321 320 320 320 320 319 320 320 320 320 319
326 323 328 331 326 324 323 320 319 317 315 313 311 314 319 319 321 323 322 326 325 316 317 323 322 321 319 318 320 321 322 322 321 321 321 321 321 321 320 321 320 320 320 319 319 319 318 316 313 311 311 313 315 318 320 321 322 323 322 322 321 321 322 322 322 322 322 322 322 321 322 323 322 322 322 321 320 320 320 319 319 319 319 319 319 319
333 320 317 322 319 315 316 313 309 310 312 312 311 312 317 319 324 328 321 315 318 320 317 318 319 320 316 315 317 318 319 321 321 321 321 320 320 319 318 319 319 319 319 318 318 318 317 317 314 310 309 310 311 311 312 314 316 319 321 322 322 322 321 322 322 322 322 322 321 321 321 322 321 321 321 321 320 319 320 319 318 319 319 319 318 318
332 318 312 316 314 310 310 309 309 312 310 311 314 313 314 319 321 320 315 312 315 318 319 318 318 317 312 311 312 312 313 316 317 315 316 318 318 317 317 318 317 318 317 317 318 317 316 317 314 309 308 309 308 308 308 308 309 311 314 318 321 323 322 322 321 321 321 321 321 321 321 320 320 320 319 320 319 319 320 319 318 318 319 318 319 319
323 316 313 319 315 310 309 309 309 313 313 312 313 313 314 317 318 316 313 312 315 317 316 316 317 314 309 308 310 309 309 311 310 310 312 314 315 317 318 317 316 316 315 315 315 314 313 313 309 307 307 308 307 308 308 308 308 308 309 311 314 318 320 322 322 321 320 319 318 318 318 318 319 319 318 319 319 319 320 319 318 319 319 319 320 320
321 314 315 326 321 310 310 312 311 314 316 313 313 314 316 316 316 318 316 312 315 313 310 313 318 313 308 307 308 307 307 308 308 309 310 310 311 316 319 318 318 317 315 314 313 311 311 310 306 305 306 307 307 307 308 308 308 308 308 308 309 310 313 315 316 315 314 312 311 312 313 314 315 315 314 315 315 315 316 316 316 317 317 318 318 318
324 315 315 327 323 310 311 313 314 318 318 316 316 315 315 316 315 314 311 309 311 312 311 316 316 310 308 309 306 305 305 306 307 308 309 309 309 312 315 317 317 318 317 315 313 311 311 310 306 304 305 305 305 306 307 308 308 308 308 308 307 308 308 309 309 309 308 308 307 308 309 310 310 310 309 310 310 310 310 310 311 311 311 312 312 313
323 318 315 322 320 312 312 314 319 322 318 316 316 311 309 311 310 309 308 305 306 309 313 315 311 306 308 309 306 304 304 304 304 305 306 308 309 308 310 310 311 313 314 314 312 312 310 308 305 303 304 305 305 305 306 307 307 307 307 306 306 307 307 307 307 307 307 307 307 307 307 307 307 308 308 309 308 308 309 308 309 308 308 309 309 309
319 321 318 320 319 313 312 315 319 319 315 312 311 308 307 308 308 308 307 304 304 307 308 308 306 306 307 307 305 304 304 303 303 302 303 305 307 308 308 309 309 310 310 310 311 310 308 306 305 304 304 305 305 306 306 306 306 307 307 307 307 306 307 307 307 307 307 307 307 307 307 307 307 307 308 309 308 308 308 307 307 308 308 309 309 309
317 319 317 319 321 313 311 316 316 313 312 309 306 305 306 305 304 304 304 303 304 305 305 305 305 305 307 306 304 303 303 302 302 301 301 302 304 306 307 307 308 310 311 311 311 309 307 306 305 304 304 305 306 306 306 306 307 307 307 307 307 306 306 307 306 306 307 307 307 307 307 307 307 307 308 309 309 309 308 307 307 308 308 307 308 309
318 317 314 314 314 311 311 315 315 309 307 306 306 306 306 306 307 308 306 304 304 304 304 304 303 304 306 306 306 306 305 303 301 301 301 301 302 304 305 305 306 307 308 309 310 309 308 307 306 304 304 305 306 305 305 305 305 306 306 306 306 306 306 306 306 306 306 306 306 306 307 307 307 307 308 308 308 308 308 308 308 308 308 308 309 309
315 317 315 310 310 313 313 311 309 307 306 306 309 307 305 306 308 309 307 304 302 303 303 302 303 304 305 305 306 308 308 305 302 301 301 301 302 302 302 302 302 303 302 304 306 308 308 308 306 305 305 306 306 305 305 304 304 305 306 305 305 305 305 305 305 305 306 306 306 306 306 306 306 306 307 307 307 307 307 307 307 308 307 308 308 309
310 312 313 309 309 313 315 309 306 308 309 309 310 308 306 306 305 305 307 305 302 303 302 301 303 303 304 305 304 305 308 307 303 302 301 300 301 301 299 298 298 299 299 300 302 303 304 305 305 303 303 304 305 306 305 304 304 305 305 304 305 305 305 305 306 305 305 306 306 306 306 306 306 306 306 306 306 306 306 306 306 307 307 307 308 308
309 312 315 314 310 310 313 312 310 310 309 308 308 307 306 305 303 305 309 306 302 302 302 300 301 301 302 303 301 303 308 308 302 301 301 299 299 299 298 297 296 297 297 298 298 299 300 301 302 302 301 301 302 304 304 304 304 304 304 304 305 305 305 305 305 305 306 306 306 306 306 306 306 306 306 306 305 306 306 305 306 306 306 307 307 308
311 314 315 314 312 311 312 311 309 308 307 305 306 306 304 302 301 305 311 307 301 300 301 299 300 300 300 300 300 301 304 303 300 300 300 298 297 296 296 296 296 296 297 297 298 298 298 299 299 300 300 299 299 300 301 302 304 304 304 304 303 304 305 305 305 305 305 305 306 306 305 305 305 305 305 305 305 305 305 305 305 304 305 305 305 306
311 313 312 310 311 312 312 310 306 306 305 303 303 304 301 301 303 307 309 306 301 299 299 299 300 299 298 300 300 299 299 299 299 299 298 296 297 296 296 296 297 297 297 298 298 298 298 299 299 299 299 299 299 299 300 301 303 303 303 302 302 303 304 304 305 305 305 306 305 305 304 304 304 304 305 304 304 305 304 304 304 305 305 305 305 306
307 309 309 308 308 309 309 307 305 306 304 301 301 302 300 303 307 305 303 303 301 299 298 299 300 299 299 300 299 298 299 299 299 299 298 298 298 297 296 296 297 298 297 298 298 298 298 299 299 299 299 298 299 299 299 300 301 301 301 300 301 302 302 303 304 304 305 305 304 304 304 303 304 304 304 304 304 304 304 304 304 305 305 306 306 306
303 306 307 305 305 307 307 306 306 305 302 299 301 302 301 303 304 301 299 299 300 299 299 299 299 298 299 299 298 298 300 300 299 299 299 299 298 297 296 297 297 297 298 298 298 298 298 299 299 299 299 299 299 300 300 300 300 300 299 299 300 301 301 301 302 303 304 304 304 304 304 303 304 304 304 304 304 303 304 304 304 305 305 305 305 305
301 305 306 303 303 306 306 304 303 302 299 298 300 300 298 299 299 299 299 299 299 299 299 299 298 298 298 298 298 299 300 299 300 299 299 300 299 296 296 296 296 297 298 298 298 298 298 298 298 299 299 299 299 299 300 300 300 300 300 300 300 301 301 302 302 302 303 303 303 304 304 304 304 304 303 304 304 304 304 304 304 305 305 304 304 304
300 301 303 301 300 301 302 301 300 299 298 298 299 298 297 297 299 299 300 299 298 298 298 299 298 299 299 298 298 299 299 299 300 299 299 300 299 296 295 296 296 296 297 297 297 298 297 297 298 298 299 298 299 299 299 299 300 300 301 300 301 301 302 302 303 303 303 303 303 303 304 304 304 304 304 304 304 304 304 304 305 304 304 304 303 303
298 299 301 300 297 297 298 298 298 298 297 297 298 297 298 298 299 299 300 299 298 298 298 299 298 298 300 300 298 299 299 299 300 300 299 300 298 296 295 295 296 296 297 297 297 297 298 298 298 298 298 298 299 299 299 299 299 299 300 300 301 302 302 302 302 302 302 302 302 302 303 303 304 304 304 304 304 304 304 304 304 303 303 303 303 303
299 301 302 301 300 300 300 298 297 298 297 297 298 297 298 299 299 299 301 300 298 298 298 298 298 297 298 298 298 298 299 299 299 299 299 299 297 295 294 295 296 296 296 297 297 297 298 298 297 298 298 298 299 298 298 299 299 299 299 300 300 301 301 301 301 301 302 302 302 302 303 303 303 303 303 303 303 303 303 303 303 303 303 303 303 303
299 301 301 300 301 302 299 297 298 298 297 297 298 298 299 299 299 299 299 298 298 298 296 295 296 296 296 296 296 296 297 297 296 296 297 296 295 293 293 294 295 295 296 296 296 296 296 297 297 298 298 298 299 299 298 298 298 298 298 299 299 300 301 301 301 301 301 302 302 303 303 303 303 303 303 303 303 303 303 303 302 303 303 303 303 303
299 300 299 298 299 299 298 298 299 298 296 298 298 298 298 299 298 298 298 298 298 299 297 295 294 293 294 294 293 294 296 296 294 294 295 295 293 292 293 294 294 294 294 294 294 295 295 295 296 297 297 298 298 299 298 298 298 298 298 298 299 300 300 301 301 301 302 302 302 302 302 302 302 302 302 302 302 302 302 302 302 302 302 302 302 303
301 299 298 299 300 300 300 300 299 297 297 298 297 297 297 298 298 298 298 298 298 298 297 297 295 292 292 292 292 293 295 294 292 292 292 292 292 292 293 293 293 293 292 292 293 293 293 294 294 295 296 297 298 298 299 299 299 299 299 299 299 300 300 301 301 302 302 302 302 302 302 302 302 302 302 302 302 301 301 301 301 301 302 302 302 302
300 299 301 303 303 301 301 301 300 299 299 299 298 297 297 297 298 298 297 296 296 295 294 295 295 293 292 292 291 292 292 292 291 291 290 290 291 292 292 292 292 292 291 292 292 292 292 292 292 293 294 295 296 297 298 299 299 299 299 300 300 300 301 302 302 302 302 302 302 302 302 302 302 302 301 301 300 300 299 299 299 299 300 300 301 301
Wind_Speed
3 1 2 4 6 7 7 7 7 4 5 4 3 3 5 4 5 6 6 6 1 4 1 2 6 6 8 10 9 8 6 5 6 6 7 8 7 8 9 8 9 9 8 10 15 19 20 20 23 23 22 25 24 19 18 16 18 26 27 25 24 22 21 21 21 21 20 19 17 14 12 13 13 13 13 13 11 10 8 7 6 5 5 5 5 4
4 2 6 9 10 8 5 4 4 2 3 3 3 3 4 4 5 6 4 7 3 5 3 1 8 3 3 7 9 10 9 7 10 11 10 10 9 8 8 8 8 6 4 7 12 16 19 20 21 20 19 22 22 19 20 18 18 24 26 26 26 24 23 23 24 23 21 20 17 15 14 15 15 14 13 13 11 10 9 8 6 5 4 4 3 3
2 3 10 9 6 4 3 5 4 2 2 2 1 2 2 3 4 6 5 7 6 5 1 1 6 1 4 2 5 10 12 10 11 13 12 12 11 9 9 9 8 6 5 7 9 12 17 19 20 19 19 21 21 20 21 20 21 24 26 27 27 26 25 25 24 23 20 18 16 15 16 18 16 14 13 13 12 10 8 8 7 6 4 3 2 3
1 6 9 4 6 4 3 3 4 1 1 2 2 2 2 3 1 3 6 7 6 3 2 4 5 3 6 4 3 5 3 3 5 8 8 9 11 11 11 10 11 11 10 10 10 10 13 16 19 19 21 23 21 22 21 21 24 27 28 29 28 27 26 26 24 21 19 18 16 15 17 19 18 16 15 14 12 10 8 8 7 6 5 3 3 5
6 9 5 3 5 6 4 3 3 2 3 3 3 4 2 4 2 4 5 5 5 5 4 6 6 4 5 2 3 4 4 3 4 5 5 5 7 7 7 8 10 11 11 12 12 11 11 14 17 20 22 23 22 22 23 24 26 28 30 29 27 27 26 24 23 20 19 19 18 18 19 19 18 18 16 15 13 10 9 8 7 7 7 6 6 6
8 7 2 1 2 5 5 5 5 6 3 4 4 6 7 5 4 4 3 4 4 5 4 5 5 3 5 2 4 2 1 2 3 5 6 5 5 5 6 7 8 8 9 10 10 10 9 12 15 18 20 21 20 22 24 27 29 30 30 29 27 26 25 24 22 21 20 19 19 19 19 18 18 17 15 14 13 11 10 9 8 9 8 7 8 8
5 4 2 3 3 4 4 4 5 7 4 2 4 6 6 6 3 2 4 5 3 1 3 4 5 3 5 2 4 3 5 5 3 5 5 5 6 5 6 6 7 7 8 8 7 7 8 12 14 16 19 21 21 24 26 28 30 31 31 29 28 26 25 24 22 20 21 20 19 19 18 17 16 15 12 12 12 12 11 11 10 10 9 7 7 8
3 4 3 4 3 4 4 4 6 8 7 3 5 5 7 5 4 3 5 4 1 2 3 5 4 2 3 3 5 2 4 5 5 7 6 6 7 5 6 7 7 8 8 8 7 8 9 13 15 16 20 23 24 26 27 28 31 31 31 29 28 27 26 24 21 21 22 22 21 20 18 17 15 13 13 13 12 12 12 12 11 10 8 7 5 6
2 2 2 3 3 3 4 5 7 9 4 6 6 7 5 5 6 5 6 3 2 2 2 7 4 2 3 4 4 2 4 4 7 9 9 9 8 7 7 7 7 7 7 8 8 9 10 13 17 19 21 23 26 28 30 30 30 30 30 29 29 27 25 23 21 21 22 23 23 22 20 18 15 14 15 15 13 12 12 11 10 8 7 6 5 5
3 4 5 5 4 5 6 5 8 10 3 4 5 5 4 4 4 4 5 4 3 3 2 7 3 2 3 5 4 3 3 1 6 8 8 8 7 7 7 7 8 7 6 7 7 7 10 15 19 19 21 23 25 28 29 30 30 30 29 27 27 26 24 23 21 21 22 24 25 24 22 20 17 16 17 17 14 12 11 10 10 9 8 7 7 8
5 3 3 4 4 6 5 3 5 7 4 3 5 5 5 5 4 4 3 4 5 2 5 7 2 3 1 4 2 1 1 3 6 7 6 7 6 6 7 8 8 8 7 6 5 5 8 12 15 17 20 22 24 27 29 27 25 23 21 19 20 21 22 22 20 21 23 26 26 25 23 20 19 19 20 18 16 13 12 11 11 9 8 9 9 9
7 3 1 3 3 3 3 3 1 2 3 5 5 4 3 2 4 4 4 4 4 2 6 6 2 4 2 4 4 3 5 5 6 7 7 9 10 8 7 7 7 6 6 5 4 5 6 7 10 14 17 20 22 21 15 12 16 19 18 15 16 18 20 20 20 22 24 26 26 24 22 21 20 21 21 20 18 15 14 13 12 11 10 10 10 10
4 3 3 5 3 3 5 2 1 5 5 5 5 5 3 1 3 1 3 2 2 3 4 3 1 2 3 5 5 6 7 6 5 6 5 6 8 9 8 7 6 6 6 5 5 5 5 5 8 11 16 18 13 12 22 28 24 20 20 17 15 16 17 18 20 23 25 26 25 24 23 21 21 22 21 20 19 17 15 14 13 13 12 12 11 11
3 5 5 4 4 1 6 5 2 2 1 4 4 4 4 2 2 1 3 1 1 2 3 4 1 1 2 3 4 7 6 4 4 1 3 4 3 5 6 5 5 5 5 5 4 5 5 6 8 12 16 13 12 23 24 20 20 26 28 24 20 18 18 19 21 24 25 26 26 24 23 22 22 22 21 19 19 18 16 15 15 14 13 13 13 12
2 3 3 2 2 1 3 5 5 5 3 3 4 5 5 4 4 3 3 2 2 1 2 4 0 3 2 2 4 6 5 3 7 6 7 8 7 7 8 7 7 6 6 5 3 1 1 3 7 12 11 9 19 20 14 14 21 28 32 31 29 27 25 24 26 27 28 27 26 24 23 22 23 22 21 19 19 19 18 16 16 15 14 13 12 11
4 4 6 4 2 2 3 3 5 6 2 2 2 5 3 4 5 2 2 5 3 1 0 2 1 2 2 3 5 5 4 6 8 8 9 8 7 8 9 8 8 7 6 6 5 5 5 5 2 6 5 12 19 20 16 15 18 24 30 33 33 33 31 30 32 32 30 28 25 24 24 24 23 23 22 21 21 20 19 17 17 15 14 14 12 11
3 4 6 4 2 3 5 4 3 4 2 1 2 3 4 4 7 5 1 1 4 3 1 1 1 2 2 2 6 5 5 7 7 7 9 9 8 9 8 8 8 7 7 6 7 6 6 7 6 3 7 15 19 20 17 15 16 20 27 31 32 31 30 32 32 30 28 27 24 23 24 25 25 24 24 23 23 22 19 18 17 16 15 14 13 12
4 2 6 1 0 4 3 3 4 3 4 4 2 5 2 2 5 5 2 3 4 2 3 2 1 1 1 1 5 5 4 4 6 6 6 9 8 6 5 8 9 8 6 5 7 7 7 8 9 10 13 17 20 20 17 15 14 17 23 28 31 32 29 26 24 24 26 26 25 24 25 26 26 26 26 25 24 22 20 19 18 17 16 14 13 13
4 1 7 2 3 5 5 5 4 4 2 4 3 3 4 3 1 1 3 2 2 2 2 3 1 2 2 2 3 2 3 2 4 4 5 6 6 4 4 7 7 7 6 5 6 6 5 7 9 11 15 18 20 20 17 14 13 15 20 25 31 32 28 23 22 25 27 26 25 25 25 27 28 28 28 26 24 22 21 20 19 19 17 15 14 14
3 3 4 5 2 3 5 5 1 4 5 3 2 3 2 3 4 2 2 3 4 3 2 1 2 1 4 4 5 6 6 5 5 4 4 5 4 3 3 5 5 5 6 6 6 6 4 5 8 12 15 17 20 20 17 14 12 14 19 24 28 28 24 23 26 30 29 25 24 23 23 25 29 30 29 25 23 22 20 19 21 21 19 18 16 15
3 4 3 5 4 3 2 0 3 3 2 2 3 3 3 2 3 2 1 2 4 4 3 2 0 4 5 3 5 7 7 7 7 6 5 4 5 4 4 5 5 5 6 6 6 6 5 6 10 13 14 15 18 17 15 13 12 14 18 22 24 25 23 22 26 29 27 23 21 20 20 22 27 30 29 26 23 22 19 17 21 23 21 20 20 18
2 3 3 1 3 3 2 3 1 2 3 4 3 1 1 3 4 3 1 1 2 4 4 5 2 5 5 2 4 6 6 7 8 9 7 5 6 6 4 5 6 6 6 6 6 5 5 7 11 13 14 15 16 17 16 15 14 15 17 19 21 22 23 23 25 26 23 18 18 19 18 19 24 27 27 25 22 20 18 16 21 25 24 24 23 21
3 4 3 1 1 1 4 4 4 2 3 6 4 1 2 3 4 5 3 3 1 3 2 4 2 5 5 1 1 4 4 3 4 8 8 6 4 4 4 4 4 5 5 5 5 5 6 9 11 12 13 14 15 15 15 14 14 15 16 17 17 18 21 23 23 22 18 14 14 17 18 18 21 24 25 23 19 17 17 18 20 22 22 24 23 22
2 4 3 1 3 3 4 5 5 4 5 6 3 2 3 2 2 5 5 3 3 3 2 4 1 4 5 4 1 3 2 2 2 3 6 6 3 3 4 4 4 5 4 3 4 4 7 10 11 11 11 11 12 12 12 11 10 11 12 14 16 16 16 18 21 20 16 14 14 15 17 17 17 19 21 21 20 18 17 16 17 18 18 20 23 21
0 2 3 3 3 4 5 5 6 5 4 3 3 4 3 3 4 3 1 3 3 3 4 5 2 6 5 4 3 4 5 5 3 3 4 6 5 5 5 4 4 5 5 4 5 5 6 8 8 10 10 10 11 10 10 11 10 8 8 10 13 15 13 13 18 20 16 14 14 14 14 15 16 17 17 18 19 19 17 12 13 15 14 15 19 21
2 2 3 5 4 2 1 2 3 2 3 2 3 6 5 4 5 3 2 4 2 3 4 5 4 5 3 4 4 4 7 6 4 3 3 4 6 6 5 5 5 5 6 6 6 6 5 6 7 9 11 11 11 11 10 10 10 10 9 8 11 15 13 10 14 19 18 16 15 14 13 14 15 15 14 13 13 14 15 11 9 13 13 11 13 16
4 2 2 5 6 5 5 4 4 3 3 1 2 5 5 4 4 5 4 2 3 3 2 2 4 4 1 1 2 3 6 8 7 7 6 6 6 6 5 5 5 5 5 6 6 6 6 6 6 9 11 13 13 13 11 10 9 10 10 9 9 11 11 9 11 16 17 16 16 15 14 14 14 12 11 10 8 11 14 13 12 14 16 16 15 16
5 3 2 5 5 2 4 3 1 3 5 4 3 2 3 3 5 6 3 2 4 5 1 5 2 6 3 1 3 3 2 4 5 5 5 5 3 3 3 4 5 5 5 5 6 7 7 6 6 8 12 15 17 17 16 15 13 11 9 7 7 9 10 10 12 14 15 15 14 14 13 12 10 9 10 10 8 9 11 11 12 14 17 19 18 17
6 1 1 5 5 3 4 4 4 5 4 3 3 3 3 3 6 6 2 1 4 5 4 4 3 4 1 4 5 5 4 2 1 3 2 1 2 1 4 5 5 5 4 5 6 6 7 7 6 8 12 15 18 19 19 19 18 16 14 10 8 8 9 10 11 11 11 10 9 8 8 8 6 5 7 10 8 9 11 13 16 19 20 19 16 13
4 1 1 5 4 4 4 3 5 6 5 4 5 4 3 4 6 6 3 2 5 5 4 6 8 4 2 3 5 5 4 1 3 6 6 6 6 3 3 5 4 5 4 4 4 3 4 4 5 8 11 13 16 17 18 19 19 19 18 16 13 10 8 8 7 7 6 4 3 4 4 5 6 6 7 8 7 8 10 13 16 16 13 11 8 8
3 2 0 4 4 2 4 4 5 6 6 6 6 6 4 6 6 6 4 3 5 5 4 8 9 5 4 3 5 5 5 6 8 8 8 7 7 6 5 3 2 3 4 4 4 4 4 4 4 6 8 11 14 16 18 18 18 18 17 16 16 14 12 11 9 8 7 6 5 4 4 4 4 5 5 5 5 6 6 6 7 6 4 3 2 2
4 3 1 5 4 1 2 3 4 6 8 7 6 7 6 5 4 4 3 3 1 4 5 7 6 1 4 4 5 7 8 10 10 8 8 7 7 7 7 6 5 4 5 6 6 6 6 5 5 5 5 7 11 15 18 18 17 16 15 14 14 13 12 12 11 10 9 8 7 6 6 5 4 4 5 6 7 8 8 8 8 7 7 6 5 5
3 4 2 3 3 2 4 1 2 5 6 3 3 3 3 3 6 5 5 6 4 3 5 4 3 2 3 3 5 8 10 11 9 7 6 6 7 8 8 8 7 6 6 7 7 7 6 6 7 9 8 6 7 10 14 15 15 14 13 12 12 11 10 10 10 9 8 8 7 7 6 6 5 5 6 7 7 7 8 8 7 7 7 6 6 5
3 5 3 2 3 2 5 3 3 3 1 3 5 2 2 4 8 9 6 6 6 4 3 3 2 3 4 4 6 8 9 8 6 6 6 6 7 8 8 8 7 6 6 7 7 7 8 10 12 13 14 11 7 6 7 9 11 12 12 11 10 10 9 9 8 7 7 6 6 6 5 4 4 5 5 6 6 5 5 5 5 5 5 5 5 4
3 4 3 2 4 2 2 4 4 2 3 2 3 3 5 5 10 14 9 6 7 7 5 5 6 5 4 4 4 6 7 6 6 8 8 8 7 7 8 8 7 7 6 6 7 8 11 16 19 19 18 16 13 10 8 8 9 10 10 10 10 9 9 8 8 8 6 5 5 5 4 3 2 2 2 3 3 2 2 3 3 3 4 4 4 3
4 3 3 2 3 2 1 3 2 4 3 1 4 3 4 2 5 10 9 8 7 6 4 5 5 5 4 4 3 1 2 3 6 8 9 8 7 7 7 6 6 6 5 5 7 8 10 12 13 13 15 15 15 15 12 9 8 8 9 10 10 10 10 10 10 10 8 8 7 6 5 4 4 4 4 3 2 2 2 3 4 4 5 5 4 4
6 3 2 2 1 3 3 2 1 1 1 1 3 2 1 1 2 4 5 3 5 4 3 3 5 6 5 5 5 4 3 4 6 7 8 9 8 7 7 7 7 7 7 7 8 8 6 5 6 7 7 7 8 10 10 11 10 7 5 6 8 9 9 10 11 10 9 8 8 7 7 6 5 6 6 4 3 4 4 5 5 6 6 6 6 5
4 3 4 4 2 3 5 3 2 2 3 5 4 4 3 3 4 3 5 1 4 5 3 2 5 5 5 5 6 4 3 6 5 5 7 8 8 8 9 11 13 14 14 13 12 8 6 5 5 5 5 3 1 1 2 6 7 8 8 6 4 5 5 5 6 6 6 5 5 5 5 4 4 4 4 4 4 4 5 5 6 6 7 7 7 8
6 2 3 4 2 2 5 4 3 3 4 5 6 7 6 4 3 3 5 1 2 4 3 3 6 5 5 5 6 4 5 4 1 4 5 7 7 7 7 10 14 18 18 18 18 17 14 9 5 5 8 8 5 3 3 5 5 8 12 9 4 2 3 2 0 3 2 1 3 3 2 1 1 1 2 3 3 4 5 5 6 7 8 8 9 9
7 4 4 4 2 2 4 3 2 3 3 4 5 6 6 3 3 5 2 3 1 2 1 3 6 4 4 5 5 5 5 2 2 4 5 6 7 7 8 9 12 15 18 19 19 18 18 16 13 13 15 15 13 10 6 6 9 11 14 12 7 4 4 4 6 9 8 5 4 4 4 3 2 1 1 1 2 3 4 6 8 9 10 10 10 10
4 3 2 3 3 3 4 3 1 1 1 4 5 6 6 2 4 4 4 6 3 2 1 4 5 3 4 5 4 3 1 1 3 4 5 5 5 7 10 11 12 12 15 17 18 18 18 18 17 16 16 17 16 15 12 7 9 11 11 11 10 8 8 10 12 13 11 9 8 7 6 6 5 4 3 2 3 3 4 6 8 9 10 10 10 9
3 3 2 2 2 2 3 3 1 1 2 5 5 5 5 1 3 2 2 2 4 3 2 3 4 3 3 4 3 2 2 4 4 4 4 4 4 6 9 12 14 15 15 15 15 16 16 17 17 17 16 17 16 15 15 10 7 11 12 13 14 12 10 11 13 14 13 11 10 9 9 8 7 6 5 5 5 5 5 6 7 8 8 7 7 6
2 2 2 2 2 2 3 3 2 2 2 7 5 3 4 2 2 1 2 2 2 3 3 3 2 2 2 2 0 3 4 4 4 4 5 5 4 5 8 10 12 14 16 16 14 14 14 14 14 14 15 16 16 15 15 13 9 11 14 15 15 14 13 13 13 14 14 13 11 10 10 9 8 8 8 7 7 6 6 7 7 7 6 6 5 5
2 1 1 1 2 1 2 2 2 2 3 6 3 3 2 2 1 2 2 2 1 1 2 2 1 1 1 1 2 3 3 4 4 4 4 5 5 5 7 8 10 12 14 15 15 15 15 14 12 12 13 15 15 14 14 15 14 13 13 16 16 14 13 14 14 14 14 13 12 11 11 10 9 9 9 9 9 9 9 8 8 8 7 7 7 6
2 2 3 2 2 2 2 2 3 2 2 4 4 3 1 2 2 2 4 3 1 1 1 2 1 3 2 1 2 3 3 3 4 4 4 4 5 6 8 10 11 12 13 13 14 15 16 15 13 13 13 14 14 14 14 14 15 15 13 12 11 10 11 12 13 14 14 13 12 11 10 10 9 9 9 9 10 10 10 10 11 10 10 10 10 9
2 2 4 4 3 4 5 4 3 2 1 3 4 2 2 3 2 3 4 4 1 1 0 1 1 4 4 2 3 3 4 5 5 5 5 4 5 7 10 12 13 14 14 14 15 15 16 15 14 13 13 13 13 13 14 14 14 14 13 11 7 7 6 7 9 10 11 11 11 10 9 10 10 10 10 10 10 10 10 11 11 12 12 13 13 13
2 2 4 4 3 4 3 0 1 2 1 1 2 3 3 3 1 2 3 3 2 2 1 1 2 3 3 2 3 4 5 5 5 6 6 5 5 7 9 11 13 14 15 16 17 17 18 17 16 15 14 14 14 14 14 16 16 16 15 13 10 9 8 8 9 9 9 10 10 10 11 12 12 12 12 11 11 11 12 12 13 14 14 15 15 16
2 2 4 3 3 2 2 3 2 1 2 1 2 2 2 2 1 0 1 1 1 0 1 1 1 0 1 2 2 3 4 5 4 5 5 5 5 7 9 11 12 13 13 15 16 18 19 19 19 19 18 17 16 15 16 18 19 20 19 18 15 13 12 12 12 11 11 11 11 12 12 12 13 13 12 13 13 13 14 15 15 16 17 17 17 18
1 3 2 2 3 2 1 2 1 1 3 3 1 1 1 1 1 1 3 3 3 3 3 4 4 3 3 3 3 2 3 5 5 5 5 5 5 8 10 12 12 12 13 14 15 16 17 18 20 21 21 20 18 16 16 17 19 20 21 20 18 16 16 15 14 13 13 13 13 13 13 13 13 13 13 14 14 14 14 15 15 17 18 18 18 18
2 2 1 4 4 0 3 3 2 3 2 4 2 2 3 3 2 2 3 3 3 3 2 3 4 4 5 5 5 4 3 4 6 6 6 6 7 10 12 13 14 14 14 15 15 15 16 18 19 20 20 20 18 16 16 17 17 18 19 19 18 17 16 16 15 15 14 14 14 14 14 13 14 14 14 15 15 15 16 16 17 18 19 19 19 19
3 3 3 4 3 4 6 5 4 3 2 4 3 3 4 3 3 4 4 3 2 1 1 2 2 3 4 5 7 5 4 5 8 8 7 8 11 13 14 14 15 16 17 17 16 16 17 19 20 20 21 21 20 17 16 16 17 18 19 19 18 17 15 16 16 16 16 15 15 14 14 14 15 15 16 17 17 17 18 18 18 19 19 20 20 19
Wind_Direction
113 110 260 219 222 223 211 193 200 197 150 179 229 208 240 259 272 275 273 289 339 101 319 189 139 150 176 180 172 152 131 124 133 148 159 162 169 182 190 189 181 186 189 181 185 187 184 181 175 173 180 188 195 197 191 192 183 169 170 178 181 186 191 188 180 176 177 178 179 180 172 160 151 149 148 146 145 141 135 132 133 129 121 117 113 115
81 138 234 223 220 218 191 182 211 210 153 181 209 213 262 253 259 277 277 308 11 93 341 45 122 140 193 184 176 153 154 171 169 173 176 171 178 190 191 186 181 184 167 166 185 190 185 181 178 182 187 187 187 184 178 179 177 169 171 179 180 182 185 183 180 178 179 180 179 180 175 164 154 153 153 147 145 142 138 140 144 150 150 139 128 133
37 236 244 233 209 194 151 151 167 184 142 138 190 178 285 266 282 304 305 323 3 85 357 63 118 233 299 263 209 180 180 189 181 180 177 171 177 189 190 182 175 177 170 176 191 193 189 183 182 185 184 186 188 181 174 175 173 168 172 176 175 175 177 177 178 179 178 176 176 174 171 169 162 158 158 152 148 149 149 146 145 157 160 147 139 147
258 250 239 198 140 164 236 185 144 42 58 161 196 119 286 284 0 310 309 329 347 46 104 106 91 316 322 353 273 243 213 172 171 178 173 174 183 188 188 181 176 179 179 183 189 194 193 185 182 183 182 184 186 181 177 176 173 170 172 175 174 173 173 173 174 175 172 167 165 161 160 164 161 157 157 155 154 159 158 140 131 141 145 135 138 141
242 248 216 128 132 158 226 245 163 201 285 256 214 148 209 274 234 231 282 325 340 6 56 80 53 337 339 9 244 290 0 72 140 176 183 197 196 175 172 185 187 186 183 181 186 190 191 189 185 183 182 184 185 184 182 180 177 174 175 178 177 174 173 173 172 172 170 166 163 154 149 151 150 150 156 156 155 158 155 139 126 130 133 128 130 137
255 257 177 216 240 149 186 237 194 180 217 291 246 190 188 202 224 267 332 23 31 5 0 55 63 301 318 311 218 242 353 139 162 199 192 190 194 161 163 193 195 197 196 187 185 186 186 187 186 183 183 184 186 186 186 185 183 180 180 180 179 176 174 174 173 174 175 173 170 163 156 152 149 150 157 156 150 145 144 141 138 138 137 130 124 125
261 288 107 185 228 136 164 239 219 164 141 302 250 196 158 138 136 16 33 58 84 303 323 52 111 235 316 306 232 224 204 204 212 223 206 186 199 176 164 192 198 197 200 192 180 173 179 183 184 186 185 184 187 189 191 190 188 186 185 182 179 175 173 173 173 177 181 178 177 175 171 167 164 161 159 154 145 138 136 137 142 142 139 134 125 119
247 322 38 126 136 124 152 228 212 147 121 241 233 146 124 130 144 123 79 76 171 213 335 11 92 134 319 278 281 288 194 223 236 224 222 210 207 181 160 186 203 200 193 188 180 174 184 188 186 187 186 187 189 190 192 192 190 189 185 181 178 173 173 175 176 180 185 184 182 181 179 177 177 173 160 151 146 141 140 140 141 142 138 136 135 129
242 294 286 166 139 152 188 208 180 141 132 240 207 143 143 162 154 128 100 85 8 56 335 327 30 93 277 274 309 8 152 226 248 229 223 216 206 182 166 180 194 200 192 189 187 182 185 188 189 189 187 188 190 192 195 194 191 187 182 178 174 172 174 178 182 186 189 189 187 185 183 180 178 171 160 158 156 152 151 148 147 149 146 144 146 149
251 226 213 163 163 206 218 208 162 149 186 232 161 121 74 73 87 86 101 104 35 58 228 285 347 102 271 292 329 19 87 225 262 255 238 222 210 181 167 172 180 184 188 196 194 185 187 191 192 189 186 190 194 196 194 193 190 184 177 173 171 172 177 183 189 192 192 193 191 188 186 182 175 165 160 164 166 165 166 161 155 153 152 152 150 150
292 280 183 150 181 207 199 180 160 162 173 125 104 81 50 37 35 39 57 82 66 16 248 261 284 108 250 290 299 334 319 264 257 274 257 215 199 181 172 171 177 179 179 187 180 172 186 191 189 187 189 192 195 199 199 197 188 169 156 158 162 170 182 189 197 200 196 195 193 191 189 184 175 168 165 169 173 177 180 173 163 158 156 159 159 158
330 343 227 244 212 160 115 120 116 41 73 93 87 79 91 358 13 26 355 41 85 250 255 258 295 86 134 267 279 278 291 281 243 246 238 199 179 175 176 171 171 166 160 158 156 165 171 172 181 186 190 196 199 200 185 138 110 112 126 146 163 175 187 198 205 203 198 195 194 194 192 187 180 175 174 176 178 182 184 178 171 170 168 167 166 167
316 261 284 303 256 128 98 119 327 5 33 82 88 76 96 4 3 0 308 356 151 228 251 255 267 110 196 248 286 309 313 310 267 233 223 200 178 168 166 163 153 145 144 142 152 173 171 173 186 187 194 202 189 121 92 85 92 121 146 161 175 180 188 203 207 200 196 196 197 197 194 190 185 182 181 181 182 183 184 183 181 181 181 177 172 171
295 302 328 329 298 102 121 142 209 305 63 124 129 114 122 103 69 249 269 301 230 241 261 267 229 180 276 275 301 316 311 323 339 18 107 88 107 123 119 115 107 105 113 122 148 177 193 200 194 193 202 194 117 92 94 107 134 153 159 169 184 187 188 200 201 196 197 199 199 198 195 193 189 185 185 187 188 185 185 191 192 192 194 191 185 179
141 312 292 200 260 288 155 170 167 152 132 170 166 132 140 153 143 203 223 183 210 234 269 287 255 150 203 257 284 297 304 37 50 47 71 79 83 87 81 77 81 74 70 73 76 93 267 244 213 209 204 138 108 113 128 145 156 163 166 172 184 189 193 200 198 195 197 198 197 197 195 195 194 191 189 192 195 190 188 196 200 201 203 202 196 190
131 233 255 250 243 179 193 217 146 113 78 251 153 105 140 185 146 129 174 170 174 143 305 290 218 194 218 273 298 307 340 41 62 60 61 65 73 88 86 78 76 68 65 63 47 24 2 355 294 236 183 116 120 135 148 160 172 179 176 177 186 189 193 200 200 196 195 194 195 198 197 197 196 194 193 196 199 196 193 199 207 208 208 207 204 201
119 247 277 316 314 204 198 204 122 103 146 213 129 150 213 180 122 107 139 81 79 109 253 256 162 311 336 315 322 348 17 24 36 58 73 68 57 68 81 84 78 67 63 68 67 44 6 15 22 38 120 132 137 142 156 175 187 188 182 184 189 190 194 200 199 195 192 191 194 199 199 198 198 199 198 199 201 199 197 203 211 214 212 212 210 207
147 242 291 335 202 278 248 137 75 77 127 121 180 195 182 80 95 104 107 18 47 135 267 335 132 256 99 191 316 353 38 29 17 30 72 86 84 89 105 106 104 105 104 87 77 65 24 19 31 59 108 141 147 147 160 173 183 188 186 187 190 192 196 195 190 193 195 194 195 197 198 199 202 204 204 203 203 200 199 206 213 216 216 215 214 210
129 190 292 275 192 297 343 75 47 347 61 123 188 179 98 100 146 90 119 133 102 169 272 347 346 226 180 207 256 237 190 135 62 39 53 77 97 130 128 110 112 121 118 94 81 78 48 32 37 67 107 139 147 148 156 163 173 181 181 188 193 194 194 187 186 197 203 201 197 196 198 201 206 208 207 206 204 201 200 207 213 216 217 216 215 213
94 136 268 283 256 331 7 51 45 315 337 15 39 23 46 128 155 160 144 148 143 159 210 338 4 260 224 217 195 202 210 167 122 93 78 80 84 88 91 94 100 108 107 102 100 100 87 68 63 78 105 135 149 154 162 169 181 184 179 184 190 192 192 191 195 201 204 203 200 197 199 205 208 210 209 207 206 204 203 209 215 218 219 219 218 217
55 112 202 285 330 32 30 58 167 200 291 6 37 11 352 59 110 141 86 87 130 138 165 155 58 265 254 212 177 196 199 167 147 132 122 126 121 109 104 108 110 104 103 106 104 102 97 82 77 83 99 128 149 160 167 169 176 179 176 179 186 192 191 190 197 202 202 202 205 205 205 211 212 210 210 208 207 207 206 213 223 223 223 224 223 222
90 126 164 293 9 65 221 257 231 203 186 134 107 71 168 134 120 123 111 310 108 125 161 154 161 262 261 197 181 194 186 174 160 146 145 160 153 143 140 133 128 119 115 118 112 108 105 91 89 95 104 120 139 157 167 169 170 171 174 179 186 192 191 190 194 198 198 199 207 210 211 216 215 212 212 208 205 210 213 223 232 231 230 231 230 229
130 105 106 93 59 187 254 298 0 40 115 101 88 95 137 127 106 122 176 233 106 108 149 121 121 260 264 263 211 203 198 201 166 151 149 151 151 145 130 109 103 101 100 112 112 112 111 108 107 106 108 115 126 144 160 168 173 171 171 176 179 184 189 192 190 187 186 185 192 201 205 211 212 210 209 201 198 214 225 230 239 243 242 236 232 231
95 82 83 0 309 322 315 326 0 41 68 60 26 19 70 78 112 142 174 178 133 152 149 93 100 257 282 328 307 175 151 68 86 131 134 129 135 146 127 104 95 97 92 101 110 115 117 114 110 105 105 109 112 121 131 138 155 168 170 174 178 181 185 188 186 182 179 176 174 181 188 194 197 197 196 194 198 212 222 229 240 251 257 249 240 237
42 109 105 84 18 353 346 340 347 2 31 42 338 335 13 62 75 100 130 74 101 182 153 120 185 250 285 352 43 122 125 116 126 146 148 149 159 168 153 144 142 136 141 141 128 124 121 114 109 108 106 104 102 104 105 108 120 142 160 171 178 183 181 179 183 183 181 179 175 172 174 178 182 183 185 193 203 210 212 218 228 236 250 257 249 243
124 140 122 118 133 166 228 267 269 301 355 2 336 345 4 38 53 76 90 69 113 186 127 132 192 248 297 24 67 124 130 127 143 159 178 183 171 169 165 160 162 156 150 145 134 126 119 113 113 113 110 107 104 101 96 96 103 115 134 153 170 180 180 171 177 183 185 186 183 179 179 180 180 178 182 193 204 213 216 217 222 226 234 251 251 239
106 71 79 125 145 174 181 205 216 154 90 73 312 351 353 358 46 86 90 91 174 149 98 213 194 165 170 59 106 169 149 147 165 171 179 194 181 173 168 160 157 150 144 139 131 127 120 119 122 118 115 112 109 106 101 97 98 104 116 131 153 174 184 180 175 179 186 192 193 192 192 193 191 190 198 209 214 226 232 233 237 238 239 246 250 237
93 39 26 97 85 138 154 147 174 121 115 159 171 41 356 359 60 85 99 163 150 120 155 263 214 138 163 324 341 289 246 179 180 182 186 192 179 153 146 148 145 138 138 137 135 137 135 136 141 133 128 123 117 112 106 100 98 99 105 121 143 161 170 172 171 175 186 197 203 204 204 206 207 208 225 238 237 240 245 241 241 245 243 243 245 241
107 92 160 93 55 41 92 107 128 120 104 122 118 76 19 30 76 98 117 159 128 136 196 211 108 111 160 338 341 319 308 280 290 324 312 0 6 76 119 128 133 137 150 153 151 155 151 151 155 146 139 133 126 120 115 109 105 101 99 104 122 143 154 162 167 173 183 195 203 204 203 210 211 210 232 246 250 253 252 237 229 233 237 239 243 248
106 83 99 104 82 49 45 76 116 112 96 66 45 35 36 51 75 87 68 65 101 115 154 123 91 58 345 333 331 331 332 19 40 14 15 20 357 358 102 119 133 141 153 153 146 148 142 139 143 142 140 137 132 126 121 117 114 110 106 104 106 114 129 145 150 151 154 155 161 162 165 182 186 182 202 219 221 224 228 221 217 222 229 236 244 254
82 101 74 90 90 34 4 33 73 93 107 86 41 22 44 64 55 50 38 28 73 94 112 104 86 41 353 357 355 358 20 50 47 29 21 19 2 7 35 27 36 102 103 84 68 64 69 70 92 123 137 140 138 134 128 124 122 120 118 114 111 111 116 126 124 117 113 103 96 114 132 144 159 168 177 182 175 171 172 176 182 186 183 185 197 213
64 109 42 62 93 251 337 54 77 81 84 71 36 8 15 58 69 51 39 15 56 140 126 98 96 58 311 339 15 32 45 48 43 28 20 19 15 27 32 11 8 54 76 66 55 57 62 61 67 85 109 133 137 134 132 131 129 127 127 125 123 122 124 126 121 113 107 99 93 97 105 111 121 129 130 127 123 121 119 116 114 108 101 98 93 88
74 116 119 86 119 244 309 18 99 77 65 32 317 329 5 95 114 91 43 17 14 114 126 126 153 224 301 354 44 49 49 47 39 25 21 18 20 34 42 33 29 43 64 69 63 58 59 58 66 77 85 107 135 136 133 132 131 129 128 126 124 126 129 126 126 128 121 110 105 101 95 93 93 100 112 117 114 111 109 105 100 94 86 81 79 75
63 104 135 124 126 222 287 333 47 56 89 263 277 261 173 136 114 98 62 12 11 37 96 127 86 22 5 34 68 70 62 55 45 33 33 32 30 37 42 41 41 40 47 57 59 52 43 32 33 51 64 70 87 112 121 125 127 128 129 128 124 122 122 119 121 130 131 126 122 116 110 98 82 86 105 114 111 105 98 87 82 79 71 65 61 57
76 95 125 105 111 161 307 29 50 266 223 239 343 69 120 120 104 97 77 29 21 25 39 54 36 13 9 24 63 90 83 71 58 43 33 29 33 42 42 37 37 42 44 51 55 51 46 36 26 25 36 46 56 66 74 94 114 123 128 129 125 118 115 111 108 111 119 129 130 121 120 120 92 90 118 129 120 101 76 56 42 35 27 24 24 21
130 125 134 103 101 135 74 70 147 226 218 346 345 26 100 71 68 82 62 21 13 12 18 39 23 6 20 12 347 45 57 41 49 41 25 17 20 34 42 32 26 36 45 67 77 68 59 56 47 34 27 28 39 49 50 55 78 104 116 117 113 108 106 103 97 95 99 102 100 96 97 100 101 103 111 122 115 71 40 19 8 0 351 350 352 348
144 132 131 123 135 144 120 102 140 166 180 235 302 322 119 307 322 104 98 22 1 8 7 36 30 18 24 13 339 326 348 24 40 27 7 4 4 9 22 22 19 24 28 50 82 95 92 86 81 66 44 21 33 49 38 20 24 38 67 90 96 93 94 95 87 81 86 93 88 80 79 82 85 89 89 84 67 42 18 3 357 352 345 339 333 327
131 152 166 168 186 115 101 93 103 140 210 225 253 281 274 261 256 153 115 62 350 5 8 73 63 34 25 17 354 346 32 48 36 352 341 352 353 355 9 13 14 18 19 23 33 41 54 77 88 75 60 31 20 109 345 343 353 353 354 18 62 61 60 83 87 70 67 85 91 83 78 75 67 67 62 48 38 29 14 2 356 349 341 331 323 316
49 60 123 131 147 118 118 138 164 182 220 237 252 278 294 266 225 104 84 48 339 358 355 91 81 54 44 32 8 25 72 69 349 304 328 342 340 347 1 5 8 14 17 20 20 15 14 22 31 27 23 14 7 353 308 274 273 301 311 316 334 5 12 26 226 239 254 164 133 133 135 125 77 34 42 40 32 24 10 -0 358 354 346 339 334 326
30 23 56 97 129 133 128 136 158 183 225 261 259 277 302 278 148 103 104 233 227 2 334 98 88 68 62 50 24 44 78 92 285 312 325 325 332 354 10 8 4 8 14 18 20 18 16 17 15 12 10 7 5 2 338 266 250 267 279 283 286 258 249 279 266 243 236 230 202 193 203 205 205 210 149 78 24 10 355 343 342 340 334 331 329 327
18 14 46 97 95 79 103 106 86 196 258 304 293 301 318 304 143 137 209 216 169 147 177 103 96 89 75 69 60 65 75 273 281 299 312 324 340 354 3 4 2 4 9 10 9 9 11 10 7 5 4 3 2 0 351 307 249 245 256 266 268 253 244 253 253 241 236 236 229 219 215 210 210 212 213 234 275 306 317 320 322 322 319 318 316 313
12 5 18 60 53 41 87 103 102 168 336 332 320 329 350 13 166 182 223 173 132 147 152 92 91 104 90 84 105 159 252 279 282 291 313 334 339 337 345 355 357 354 356 359 360 -0 1 358 356 354 352 353 355 355 357 344 272 252 261 266 264 260 255 248 241 238 236 235 232 226 219 216 219 224 232 246 260 276 292 303 308 309 311 314 314 310
25 30 20 24 30 41 63 74 115 147 333 330 328 354 19 52 151 137 58 61 97 141 135 94 82 112 108 84 160 238 257 283 289 298 315 318 321 331 336 342 345 341 342 346 348 350 350 346 345 345 340 342 347 351 357 354 322 286 277 276 275 273 263 248 237 234 234 232 231 227 223 224 229 234 241 249 257 264 271 276 281 287 295 302 310 312
11 80 123 356 0 61 86 83 125 167 307 331 11 79 43 14 111 144 123 85 65 119 113 87 32 285 200 180 297 276 269 289 297 305 316 312 317 330 325 325 331 330 331 335 335 336 335 328 325 330 329 328 333 339 348 355 348 326 301 290 285 272 250 238 233 230 226 222 218 217 219 223 226 231 235 241 248 253 252 251 252 256 269 282 288 288
2 98 128 95 46 77 105 114 128 168 286 346 46 95 90 13 19 102 116 100 69 29 90 97 23 303 269 247 300 297 286 300 308 308 306 301 304 314 315 319 325 326 327 328 329 330 327 319 313 314 316 317 318 318 324 336 343 341 330 314 290 256 229 221 218 213 208 206 207 211 215 216 216 220 224 229 236 241 243 244 247 252 261 270 272 270
5 69 89 91 92 82 68 66 94 116 352 14 39 62 80 64 48 77 93 96 115 244 220 160 247 291 296 314 332 315 298 304 308 302 298 301 302 307 313 318 324 330 332 331 334 335 331 323 315 309 307 310 311 309 307 311 318 323 326 323 301 264 245 237 226 215 210 210 212 216 219 221 223 226 229 233 237 241 246 249 253 258 261 263 264 263
316 43 76 94 113 105 89 73 170 141 148 109 82 61 56 66 78 106 109 135 185 213 258 261 261 281 299 327 321 292 286 295 302 298 300 304 301 302 308 312 316 324 328 328 330 332 329 323 317 311 306 304 306 308 306 302 300 300 302 303 292 270 262 262 258 250 240 230 224 223 225 229 233 236 240 245 249 251 255 255 256 257 256 256 256 255
314 52 83 93 85 112 190 237 250 237 248 208 128 121 116 122 153 7 85 129 140 66 353 351 9 345 351 354 331 298 292 297 298 297 298 297 294 298 303 307 311 318 325 328 330 330 327 320 312 305 300 297 299 305 306 301 297 292 291 293 289 273 261 258 255 251 244 234 228 229 231 236 241 244 247 251 252 253 253 251 251 252 251 251 251 249
17 52 101 101 58 30 280 280 357 23 310 310 353 12 266 194 190 355 20 48 57 39 16 15 29 47 52 26 4 356 334 315 308 309 307 303 303 305 308 311 314 318 322 325 328 329 327 323 317 309 301 296 295 298 298 297 296 289 283 282 282 276 266 258 249 241 234 229 228 232 237 242 247 251 254 256 257 256 254 252 250 250 251 251 250 249
61 68 87 87 77 339 257 246 158 139 238 269 279 306 281 245 180 83 65 70 61 33 10 12 15 22 33 24 9 1 340 314 312 315 308 298 298 305 310 311 312 313 316 318 319 320 320 320 321 319 313 307 303 298 290 286 284 280 274 271 270 267 259 250 243 237 232 230 233 238 243 248 252 256 260 262 264 264 263 260 256 254 252 251 247 246
135 164 162 131 149 213 228 220 184 148 210 246 230 246 262 238 143 112 112 118 96 63 121 108 37 4 2 3 1 352 325 308 314 315 305 296 299 302 305 304 301 301 305 305 304 306 308 309 312 315 316 316 314 308 299 288 278 274 270 262 255 252 246 239 235 233 232 233 238 243 247 252 256 259 262 264 266 267 267 265 262 259 258 256 253 250